Location: Bush Observatory
(40.2653°N, 94.3194°W)
Time: 16:30:25
(UTC-05:00)

Iridium 13 - Visible Passes

Search period start: 24 August 2016 00:00
Search period end: 03 September 2016 00:00
Orbit: 776 x 779 km, 86.4° (Epoch: 24 August)

Date Brightness Start Highest point End Pass type
(mag) Time Alt. Az. Time Alt. Az. Time Alt. Az.
24 Aug 6.7 21:19:02 10° NNE 21:23:10 23° ENE 21:24:12 22° E visible
24 Aug 6.6 22:59:12 10° NNW 23:03:59 38° W 23:04:41 37° WSW visible
25 Aug 7.3 20:47:03 10° NE 20:49:19 13° ENE 20:50:56 11° E visible
25 Aug 5.6 22:25:23 10° N 22:30:35 72° W 22:31:25 60° SW visible
26 Aug 5.5 21:51:53 10° N 21:57:04 62° E 21:58:10 49° SE visible
26 Aug 8.0 23:34:22 10° NW 23:37:10 15° WNW 23:38:39 13° W visible
27 Aug 6.3 21:18:42 10° NNE 21:23:24 33° E 21:24:57 28° ESE visible
27 Aug 7.3 22:59:38 10° NNW 23:03:57 27° W 23:05:26 23° WSW visible
28 Aug 7.0 20:46:02 10° NNE 20:49:37 18° ENE 20:51:44 15° ESE visible
28 Aug 6.3 22:25:36 10° NNW 22:30:37 49° W 22:32:14 37° SW visible
29 Aug 5.4 21:51:55 10° N 21:57:10 89° E 21:59:03 41° S visible
30 Aug 5.8 21:18:32 10° N 21:23:36 48° E 21:25:55 29° SE visible
30 Aug 7.8 23:00:19 10° NW 23:03:52 19° W 23:06:24 14° WSW visible
31 Aug 6.5 20:45:31 10° NNE 20:49:54 26° E 20:52:48 17° ESE visible
31 Aug 7.0 22:25:57 10° NNW 22:30:37 34° W 22:33:18 21° SW visible
01 Sep 7.2 20:13:13 10° NE 20:16:03 15° ENE 20:18:52 10° ESE visible
01 Sep 5.9 21:52:04 10° N 21:57:14 63° W 22:00:13 25° SSW visible
02 Sep 5.4 21:18:30 10° N 21:23:44 70° E 21:27:11 21° SSE visible
02 Sep 8.3 23:01:30 10° NW 23:03:45 13° WNW 23:06:01 10° WSW visible
